Holbrook, NY

6:07 PM EST on December 06, 2016 (GMT -0500)
Long Island Mac Arthur

Weather History for KISP - November, 2012

Change the Weather History Date:

Tuesday, November 13, 2012

  Actual Average Record
Temperature  
Mean Temperature 51 °F 46 °F  
Max Temperature 61 °F 54 °F 64 °F (2006)
Min Temperature 40 °F 38 °F 24 °F (2001)
Degree Days  
Heating Degree Days 14 19  
Month to date heating degree days 261 225  
Since 1 July heating degree days 541 645  
Cooling Degree Days 0 0  
Month to date cooling degree days 0 0  
Year to date cooling degree days 993 787  
Moisture  
Dew Point 44 °F    
Average Humidity 76    
Maximum Humidity 93    
Minimum Humidity 58    
Precipitation  
Precipitation 0.13 in 0.12 in 0.58 in (1988)
Month to date precipitation 1.41 1.50  
Year to date precipitation 38.09 40.01  
Snow  
Snow 0.00 in 0.00 in - ()
Month to date snowfall 4.2 0.1  
Since 1 July snowfall 4.2 0.1  
Snow Depth 0.00 in    
Sea Level Pressure  
Sea Level Pressure 30.26 in    
Wind  
Wind Speed 11 mph (NNW)    
Max Wind Speed 20 mph    
Max Gust Speed 26 mph    
Visibility 9 miles    
Events Rain    
T = Trace of Precipitation, MM = Missing Value Source: NWS Daily Summary

Daily Weather History Graph

Daily Weather History Graph

Search for Another Location

Airport or City:

Trip Planner

Search our weather history database for the weather conditions in past years. The results will help you decide how hot, cold, wet, or windy it might be!

Date:

Astronomy

Nov. 13, 2012 Rise Set
Actual Time 6:37 AM EST 4:35 PM EST
Civil Twilight 6:08 AM EST 5:04 PM EST
Nautical Twilight 5:35 AM EST 5:37 PM EST
Astronomical Twilight 5:02 AM EST 6:10 PM EST
Moon 6:12 AM EST (11/13) 4:26 PM EST (11/13)
Length of Visible Light 10h 56m
Length of Day
9h 57m
Waning Crescent, 0% of the Moon is Illuminated
Nov 13
Waning Crescent
Nov 13
New
Nov 20
First Quarter
Nov 28
Full
Dec 6
Last Quarter

Hourly Weather History & Observations

Time (EST) Temp. Windchill Dew Point Humidity Pressure Visibility Wind Dir Wind Speed Gust Speed Precip Events Conditions
12:56 AM 60.1 °F - 57.9 °F 93% 30.19 in 10.0 mi South 9.2 mph - N/A   Mostly Cloudy
1:25 AM 60.8 °F - 57.2 °F 88% 30.18 in 10.0 mi South 8.1 mph - N/A   Mostly Cloudy
1:56 AM 60.1 °F - 57.0 °F 90% 30.17 in 10.0 mi South 9.2 mph - N/A   Mostly Cloudy
2:56 AM 57.9 °F - 55.9 °F 93% 30.16 in 10.0 mi South 9.2 mph - N/A   Mostly Cloudy
3:12 AM 59.0 °F - 57.2 °F 94% 30.15 in 10.0 mi South 9.2 mph - N/A   Overcast
3:56 AM 59.0 °F - 55.9 °F 90% 30.14 in 10.0 mi South 8.1 mph - N/A   Overcast
4:56 AM 59.0 °F - 55.9 °F 90% 30.14 in 10.0 mi South 8.1 mph - N/A   Overcast
5:56 AM 59.0 °F - 55.9 °F 90% 30.15 in 9.0 mi WSW 13.8 mph 21.9 mph 0.00 in Rain Light Rain
6:04 AM 59.0 °F - 55.4 °F 88% 30.15 in 9.0 mi West 12.7 mph - 0.00 in Rain Light Rain
6:56 AM 53.1 °F - 50.0 °F 89% 30.17 in 10.0 mi NNW 10.4 mph - 0.04 in   Overcast
7:56 AM 52.0 °F - 48.0 °F 86% 30.22 in 9.0 mi NW 12.7 mph - 0.00 in Rain Light Rain
8:56 AM 51.1 °F - 46.0 °F 83% 30.23 in 10.0 mi NNW 15.0 mph - 0.00 in   Overcast
9:24 AM 51.8 °F - 44.6 °F 76% 30.24 in 10.0 mi NNW 13.8 mph - N/A   Overcast
9:56 AM 50.0 °F - 45.0 °F 83% 30.25 in 10.0 mi North 12.7 mph - N/A   Overcast
10:56 AM 51.1 °F - 44.1 °F 77% 30.24 in 10.0 mi North 10.4 mph - N/A   Overcast
11:56 AM 48.9 °F - 43.0 °F 80% 30.25 in 5.0 mi NNW 9.2 mph - 0.01 in Rain Light Rain
12:22 PM 48.2 °F - 42.8 °F 82% 30.25 in 8.0 mi North 9.2 mph - 0.01 in Rain Light Rain
12:56 PM 48.0 °F - 43.0 °F 83% 30.26 in 8.0 mi NNW 8.1 mph - 0.01 in Rain Light Rain
1:56 PM 45.0 °F 39.3 °F 39.9 °F 82% 30.26 in 8.0 mi North 11.5 mph 20.7 mph 0.03 in Rain Light Rain
2:56 PM 45.0 °F 40.1 °F 39.9 °F 82% 30.29 in 5.0 mi NNW 9.2 mph - 0.04 in Rain Light Rain
3:56 PM 45.0 °F 41.8 °F 39.9 °F 82% 30.30 in 10.0 mi North 5.8 mph - 0.00 in   Overcast
4:35 PM 44.6 °F 40.2 °F 37.4 °F 76% 30.31 in 10.0 mi North 8.1 mph - N/A   Mostly Cloudy
4:56 PM 44.1 °F 41.5 °F 37.0 °F 76% 30.32 in 10.0 mi North 4.6 mph - N/A   Mostly Cloudy
5:56 PM 44.1 °F 38.6 °F 34.0 °F 68% 30.33 in 10.0 mi North 10.4 mph - N/A   Mostly Cloudy
6:56 PM 44.1 °F 37.4 °F 30.9 °F 60% 30.35 in 10.0 mi North 13.8 mph - N/A   Mostly Cloudy
7:56 PM 45.0 °F 38.5 °F 30.0 °F 56% 30.37 in 10.0 mi North 13.8 mph 21.9 mph N/A   Overcast
8:56 PM 44.1 °F 37.1 °F 30.0 °F 58% 30.39 in 10.0 mi North 15.0 mph - N/A   Overcast
9:56 PM 43.0 °F 35.7 °F 30.0 °F 60% 30.40 in 10.0 mi North 15.0 mph - N/A   Overcast
10:56 PM 41.0 °F 34.7 °F 30.0 °F 65% 30.41 in 10.0 mi North 10.4 mph - N/A   Scattered Clouds
11:56 PM 39.9 °F 34.5 °F 28.9 °F 65% 30.42 in 10.0 mi North 8.1 mph - N/A   Partly Cloudy